DateTimeUTC,F1_A11,F1_S11,BsB_S11,BsG_S11,BsR_S11,BbsB_S11,BbsG_S11,BbsR_S11,BaB_A11,BaG_A11,BaR_A11,Tu_S11,T_S11,Uu_S11,U_S11,P_S11,T1_A11
2021-09-13T17:00:00Z,00000200,20000000,,,,,,,0000.32,-000.00,0000.08,18.8,25.8,02.3,01.5,0661.2,31.1
2021-09-13T17:01:00Z,00000200,20000000,,,,,,,-000.16,0000.14,0000.02,18.8,25.8,02.3,01.5,0661.3,31.1
2021-09-13T17:02:00Z,00000200,20000000,,,,,,,-000.01,0000.04,-000.13,18.8,25.8,02.3,01.5,0661.3,31.1
2021-09-13T17:03:00Z,00000200,60000000,,,,,,,0000.38,0000.15,0000.01,18.8,25.8,02.3,01.5,0661.3,31.1
2021-09-13T17:04:00Z,00000200,40000000,0000.94,0000.25,-000.11,-000.39,0000.26,-000.14,0000.14,-000.04,-000.02,18.9,25.6,02.4,01.6,0662.2,31.1
2021-09-13T17:05:00Z,00000200,00000000,0000.55,0000.12,0000.26,0000.36,-000.05,0000.48,-000.27,0000.16,0000.31,19.0,25.6,02.4,01.6,0662.3,31.1
2021-09-13T17:06:00Z,00000200,00000000,0000.62,0000.27,0000.14,-000.12,-000.08,-000.04,0000.22,0000.03,0000.09,19.0,25.6,02.3,01.5,0662.3,31.1
2021-09-13T17:07:00Z,00000200,00000000,0000.95,0000.25,-000.23,0000.63,-000.19,0000.14,0000.29,-000.13,0000.01,19.0,25.6,02.5,01.7,0662.3,31.1
2021-09-13T17:08:00Z,00000200,00000000,0000.27,0000.55,0000.14,-000.25,0000.35,0000.14,0000.38,0000.59,-000.00,19.0,25.6,02.4,01.6,0662.3,31.1
2021-09-13T17:09:00Z,00000200,00000000,0000.42,0000.52,0000.07,-000.11,-000.05,-000.08,-000.01,0000.12,0000.48,19.0,25.5,02.3,01.6,0662.3,31.1
2021-09-13T17:10:00Z,00000200,00000000,0000.43,0000.20,0000.56,0000.48,0000.29,-000.07,-000.03,0000.14,-000.01,19.0,25.6,02.4,01.6,0662.3,31.1
2021-09-13T17:11:00Z,00000200,00000000,0000.70,0000.31,0000.30,0000.31,0000.03,0000.07,0000.14,0000.01,-000.40,19.0,25.6,02.5,01.7,0662.3,31.1
2021-09-13T17:12:00Z,00000200,00000000,0000.54,0000.35,-000.13,-000.28,-000.09,-000.00,-000.07,0000.03,0000.45,19.0,25.5,02.5,01.7,0662.3,31.1
2021-09-13T17:13:00Z,00000200,00000000,0001.12,0000.19,0000.00,0000.84,-000.26,-000.20,0000.64,0000.38,0000.34,19.0,25.6,02.5,01.7,0662.3,31.1
2021-09-13T17:14:00Z,00000200,00000000,0000.94,0000.32,0000.17,-000.12,-000.09,-000.18,0000.05,0000.07,-000.11,19.0,25.6,02.6,01.7,0662.3,31.1
2021-09-13T17:15:00Z,00000200,00000000,0001.06,0000.47,0000.10,0000.09,-000.18,-000.09,-000.22,0000.25,0000.39,19.1,25.5,02.5,01.7,0662.3,31.1
2021-09-13T17:16:00Z,00000200,00000000,0000.88,0000.22,0000.02,0000.39,-000.02,-000.12,0000.21,-000.27,0000.21,19.1,25.5,02.5,01.7,0662.3,31.1
2021-09-13T17:17:00Z,00000200,00000000,0000.03,0000.08,0000.40,0000.29,-000.07,-000.03,0000.23,0000.49,-000.26,19.1,25.5,02.5,01.7,0662.3,31.1
2021-09-13T17:18:00Z,00000200,00000000,-000.12,0001.04,0000.26,0000.39,0000.00,0000.02,0000.09,-000.02,0000.01,19.1,25.5,02.4,01.6,0662.3,31.1
2021-09-13T17:19:00Z,00000200,00000000,0000.67,0000.56,0000.63,0000.52,0000.06,0000.07,0000.40,0000.34,0000.27,19.1,25.5,02.4,01.6,0662.3,31.1
2021-09-13T17:20:00Z,00000200,00000000,0000.81,0000.18,-000.26,0000.24,-000.22,-000.15,0000.25,-000.08,0000.17,19.1,25.5,02.5,01.6,0662.3,31.1
2021-09-13T17:21:00Z,00000200,00000000,0000.13,-000.01,-000.17,0000.86,0000.25,-000.26,0000.14,0000.19,0000.02,19.1,25.5,02.3,01.6,0662.3,31.1
2021-09-13T17:22:00Z,00000200,00000000,0000.23,0000.39,0000.18,-000.00,0000.11,-000.16,0000.28,0000.27,0000.31,19.1,25.5,02.5,01.7,0662.3,31.1
2021-09-13T17:23:00Z,00000200,00000000,0000.72,0000.28,-000.18,-000.01,0000.00,0000.30,-000.13,-000.18,-000.01,19.1,25.5,02.4,01.6,0662.3,31.1
2021-09-13T17:24:00Z,00000200,00000000,0001.29,0000.35,-000.09,0000.04,-000.17,-000.01,0000.35,0000.03,-000.11,19.1,25.5,02.4,01.6,0662.3,31.1
2021-09-13T17:25:00Z,00000200,00000000,0000.33,0000.29,-000.10,0000.58,-000.02,-000.19,-000.32,0000.34,0000.12,19.1,25.6,02.4,01.6,0662.3,31.1
2021-09-13T17:26:00Z,00000200,00000000,-000.21,0000.48,0000.17,0000.57,0000.37,-000.03,0000.20,0000.30,0000.10,19.1,25.5,02.5,01.7,0662.3,31.1
2021-09-13T17:27:00Z,00000200,00000000,0000.22,0000.17,0000.06,0000.26,-000.09,0000.28,0000.14,-000.28,-000.13,19.1,25.5,02.3,01.6,0662.3,31.1
2021-09-13T17:28:00Z,00000200,00000000,0000.80,0000.39,0000.03,0000.62,0000.08,0000.00,0000.03,-000.20,0000.35,19.1,25.5,02.4,01.6,0662.3,31.1
2021-09-13T17:29:00Z,00000200,00000000,0000.23,0000.28,0000.26,0000.69,0000.06,0000.26,0000.27,0000.59,-000.13,19.0,25.5,02.4,01.6,0662.3,31.1
2021-09-13T17:30:00Z,00000200,00000000,0001.30,0000.70,-000.17,0000.49,-000.19,-000.18,0000.03,-000.08,0000.22,19.1,25.5,02.3,01.6,0662.3,31.1
2021-09-13T17:31:00Z,00000200,00000000,0000.07,0000.53,-000.03,0000.60,-000.18,0000.27,0000.11,0000.17,-000.09,19.1,25.5,02.3,01.6,0662.3,31.1
2021-09-13T17:32:00Z,00000200,00000000,0001.03,0000.40,0000.42,-000.16,0000.08,0000.24,0000.30,0000.17,0000.18,19.1,25.5,02.3,01.5,0662.2,31.1
2021-09-13T17:33:00Z,00000200,00000000,0000.06,0000.39,0000.40,0000.00,0000.05,-000.13,-000.22,-000.10,0000.18,19.1,25.5,02.3,01.5,0662.3,31.1
2021-09-13T17:34:00Z,00000200,00000000,0000.23,0000.59,0000.00,0000.75,0000.32,0000.02,0000.06,0000.48,0000.13,19.1,25.5,02.4,01.6,0662.2,31.1
2021-09-13T17:35:00Z,00000200,00000000,0000.55,0000.40,-000.10,0000.55,0000.10,-000.12,0000.47,0000.33,0000.48,19.1,25.5,02.4,01.6,0662.3,31.1
2021-09-13T17:36:00Z,00000200,00000000,-000.37,0000.69,0000.49,0000.65,-000.12,0000.10,0000.36,0000.18,-000.04,19.1,25.5,02.4,01.6,0662.3,31.1
2021-09-13T17:37:00Z,00000200,00000000,-000.31,0000.38,0000.11,0000.89,0000.21,-000.17,-000.11,-000.42,0000.13,19.1,25.6,02.4,01.6,0662.3,31.1
2021-09-13T17:38:00Z,00000200,00000000,0001.14,0000.42,0000.21,0000.30,0000.03,-000.10,0000.26,0000.23,-000.45,19.1,25.5,02.3,01.6,0662.3,31.1
2021-09-13T17:39:00Z,00000200,00000000,0000.25,0000.24,0000.35,0000.15,0000.29,-000.18,-000.30,-000.14,-000.10,19.0,25.5,02.3,01.5,0662.2,31.1
2021-09-13T17:40:00Z,00000200,00000000,0000.74,0000.46,0000.07,0000.19,-000.10,0000.08,-000.28,-000.02,-000.25,19.0,25.5,02.1,01.4,0662.2,31.1
2021-09-13T17:41:00Z,00000200,01000000,0000.37,0000.32,0000.07,0000.51,-000.06,-000.05,0000.18,0000.21,0000.25,19.1,25.5,02.2,01.5,0662.3,31.1
2021-09-13T17:42:00Z,00000200,00000000,0000.96,0000.56,-000.08,-000.03,-000.12,0000.07,0000.53,0000.11,0000.37,19.0,25.5,02.1,01.4,0662.3,31.1
2021-09-13T17:43:00Z,00000200,00000000,-000.10,0000.48,0000.04,0000.73,0000.04,-000.18,-000.06,0000.40,-000.01,19.0,25.5,02.2,01.5,0662.3,31.1
2021-09-13T17:44:00Z,00000200,00000000,0000.17,0000.57,0000.22,0000.53,-000.07,0000.23,0000.32,0000.17,0000.53,19.0,25.5,02.4,01.6,0662.3,31.1
2021-09-13T17:45:00Z,00000200,00000000,0000.27,0000.46,-000.09,0000.34,-000.22,0000.25,0000.82,0000.47,0000.43,19.0,25.5,02.4,01.6,0662.3,31.1
2021-09-13T17:46:00Z,00000200,00000000,0000.47,0000.68,0000.02,0000.41,0000.14,-000.26,0000.53,0000.37,0000.30,19.0,25.5,02.5,01.7,0662.3,31.1
2021-09-13T17:47:00Z,00000200,00000000,0000.05,0000.47,0000.28,0000.32,0000.22,0000.15,0000.16,0000.00,0000.18,19.0,25.5,02.7,01.8,0662.3,31.1
2021-09-13T17:48:00Z,00000200,00000000,0000.41,0000.48,0000.18,-000.41,-000.09,-000.01,0000.03,-000.08,-000.19,19.0,25.5,02.7,01.8,0662.2,31.1
2021-09-13T17:49:00Z,00000200,00000000,0000.20,0000.69,0000.25,0000.75,-000.08,-000.04,0000.53,0000.70,0000.40,19.0,25.5,02.7,01.8,0662.2,31.1
2021-09-13T17:50:00Z,00000200,00000000,0000.41,0000.45,0000.69,0000.34,-000.00,0000.34,-000.19,-000.09,-000.21,19.1,25.5,02.7,01.8,0662.2,31.1
2021-09-13T17:51:00Z,00000200,00000000,0000.65,0000.51,0000.49,0000.20,-000.31,0000.09,0000.09,0000.31,0000.38,19.0,25.5,02.8,01.9,0662.2,31.1
2021-09-13T17:52:00Z,00000200,00000000,0001.17,0000.20,0000.41,0000.61,0000.03,0000.36,0000.45,0000.19,0000.12,19.0,25.5,02.7,01.8,0662.2,31.1
2021-09-13T17:53:00Z,00000200,00000000,0000.51,0000.23,-000.06,0000.45,0000.12,0000.18,0000.00,0000.18,0000.32,19.1,25.5,02.7,01.8,0662.2,31.1
2021-09-13T17:54:00Z,00000200,00000000,0000.65,0000.37,0000.23,-000.08,-000.03,-000.06,0000.19,0000.27,-000.40,19.1,25.5,02.7,01.8,0662.2,31.1
2021-09-13T17:55:00Z,00000200,00000000,0000.19,0000.66,0000.31,0000.27,0000.14,0000.00,0000.07,-000.02,0000.10,19.0,25.5,02.6,01.8,0662.2,31.1
2021-09-13T17:56:00Z,00000200,00000000,0000.81,0000.07,0000.28,-000.10,0000.31,-000.07,0000.05,-000.15,0000.50,19.1,25.5,02.7,01.8,0662.3,31.1
2021-09-13T17:57:00Z,00000200,40000000,,,,,,,-000.01,0000.17,-000.21,19.1,25.6,02.2,01.5,0662.3,31.1
2021-09-13T17:58:00Z,00000200,60000000,,,,,,,-000.03,-000.02,-000.26,18.8,25.7,02.6,01.7,0661.3,31.1
2021-09-13T17:59:00Z,00000200,20000000,,,,,,,0000.11,0000.06,0000.50,18.8,25.8,02.6,01.7,0661.3,31.1
